Faribault, MN

11:21 AM CST on February 26, 2017 (GMT -0600)
Faribault Municipal

Weather History for KFBL - February, 2014

Change the Weather History Date:

Wednesday, February 12, 2014

  Actual Average Record
Temperature  
Mean Temperature 20 °F -  
Max Temperature 26 °F 25 °F 55 °F (2005)
Min Temperature 15 °F 5 °F -28 °F (1988)
Degree Days  
Heating Degree Days 44    
Moisture  
Dew Point 11 °F    
Average Humidity 69    
Maximum Humidity 80    
Minimum Humidity 55    
Precipitation  
Precipitation 0.04 in - - ()
Sea Level Pressure  
Sea Level Pressure 30.01 in    
Wind  
Wind Speed 7 mph (South)    
Max Wind Speed 14 mph    
Max Gust Speed 20 mph    
Visibility 6 miles    
Events Snow    
Averages and records for this station are not official NWS values.
T = Trace of Precipitation, MM = Missing Value Source: NWS Daily Summary

Daily Weather History Graph

Daily Weather History Graph

Search for Another Location

Airport or City:

Trip Planner

Search our weather history database for the weather conditions in past years. The results will help you decide how hot, cold, wet, or windy it might be!

Date:

Astronomy

Feb. 12, 2014 Rise Set
Actual Time 7:17 AM CST 5:38 PM CST
Civil Twilight 6:47 AM CST 6:08 PM CST
Nautical Twilight 6:13 AM CST 6:42 PM CST
Astronomical Twilight 5:39 AM CST 7:16 PM CST
Moon 3:51 PM CST (2/12) 5:36 AM CST (2/12)
Length of Visible Light 11h 21m
Length of Day
10h 21m
Waxing Gibbous, 95% of the Moon is Illuminated
Feb 12
Waxing Gibbous
Feb 14
Full
Feb 22
Last Quarter
Mar 1
New
Mar 8
First Quarter

Hourly Weather History & Observations

Time (CST) Temp. Windchill Dew Point Humidity Pressure Visibility Wind Dir Wind Speed Gust Speed Precip Events Conditions
12:14 AM 15.8 °F 2.7 °F 3.2 °F 58% 30.05 in 10.0 mi South 11.5 mph 17.3 mph N/A   Overcast
12:34 AM 15.8 °F 3.4 °F 3.2 °F 58% 30.05 in 10.0 mi South 10.4 mph - N/A   Overcast
12:54 AM 15.8 °F 3.4 °F 3.2 °F 58% 30.05 in 10.0 mi South 10.4 mph - N/A   Overcast
1:14 AM 15.8 °F 5.1 °F 5.0 °F 62% 30.06 in 10.0 mi South 8.1 mph - N/A   Overcast
1:34 AM 17.6 °F 4.3 °F 6.8 °F 63% 30.06 in 3.0 mi South 12.7 mph 19.6 mph N/A Snow Light Snow
1:54 AM 17.6 °F 5.7 °F 8.6 °F 68% 30.05 in 1.8 mi South 10.4 mph - N/A Snow Light Snow
2:14 AM 17.6 °F 5.7 °F 8.6 °F 68% 30.05 in 3.0 mi South 10.4 mph 18.4 mph N/A Snow Light Snow
2:34 AM 17.6 °F 5.7 °F 8.6 °F 68% 30.05 in 7.0 mi South 10.4 mph - N/A   Overcast
2:54 AM 17.6 °F 6.4 °F 8.6 °F 68% 30.05 in 10.0 mi South 9.2 mph 16.1 mph N/A   Overcast
3:14 AM 17.6 °F 7.3 °F 8.6 °F 68% 30.04 in 2.5 mi South 8.1 mph - N/A Snow Light Snow
3:34 AM 17.6 °F 6.4 °F 10.4 °F 73% 30.05 in 1.2 mi South 9.2 mph - N/A Snow Light Snow
3:53 AM 17.6 °F 7.3 °F 10.4 °F 73% 30.05 in 1.2 mi South 8.1 mph - N/A Snow Light Snow
4:14 AM 17.6 °F 7.3 °F 10.4 °F 73% 30.04 in 1.2 mi South 8.1 mph - N/A Snow Light Snow
4:34 AM 17.6 °F 6.4 °F 10.4 °F 73% 30.04 in 1.2 mi SSW 9.2 mph - N/A Snow Light Snow
4:53 AM 17.6 °F 9.3 °F 10.4 °F 73% 30.05 in 1.5 mi South 5.8 mph - N/A Snow Light Snow
5:14 AM 17.6 °F 9.3 °F 10.4 °F 73% 30.05 in 1.8 mi South 5.8 mph - N/A Snow Light Snow
5:34 AM 17.6 °F 10.7 °F 10.4 °F 73% 30.06 in 2.5 mi SSW 4.6 mph - N/A Snow Light Snow
5:54 AM 17.6 °F 12.3 °F 10.4 °F 73% 30.06 in 1.2 mi SSW 3.5 mph - N/A Snow Light Snow
6:14 AM 17.6 °F 10.7 °F 10.4 °F 73% 30.06 in 2.5 mi South 4.6 mph - N/A Snow Light Snow
6:33 AM 17.6 °F 12.3 °F 10.4 °F 73% 30.06 in 5.0 mi SSW 3.5 mph - N/A Snow Light Snow
6:54 AM 17.6 °F 7.3 °F 10.4 °F 73% 30.06 in 7.0 mi South 8.1 mph - N/A   Mostly Cloudy
7:14 AM 17.6 °F 10.7 °F 10.4 °F 73% 30.06 in 7.0 mi SSW 4.6 mph - N/A   Overcast
7:34 AM 17.6 °F 10.7 °F 10.4 °F 73% 30.06 in 10.0 mi South 4.6 mph - N/A   Overcast
7:54 AM 17.6 °F - 10.4 °F 73% 30.06 in 10.0 mi Calm Calm - N/A   Overcast
8:14 AM 17.6 °F 12.3 °F 10.4 °F 73% 30.07 in 10.0 mi South 3.5 mph - N/A   Overcast
8:34 AM 17.6 °F 12.3 °F 10.4 °F 73% 30.07 in 10.0 mi South 3.5 mph - N/A   Overcast
8:54 AM 19.4 °F 14.3 °F 10.4 °F 68% 30.08 in 10.0 mi SSW 3.5 mph - N/A   Overcast
9:13 AM 19.4 °F 12.8 °F 10.4 °F 68% 30.08 in 7.0 mi SSW 4.6 mph - N/A   Mostly Cloudy
9:34 AM 19.4 °F 14.3 °F 10.4 °F 68% 30.08 in 7.0 mi SSW 3.5 mph - N/A   Mostly Cloudy
9:54 AM 19.4 °F - 10.4 °F 68% 30.09 in 10.0 mi Calm Calm - N/A   Mostly Cloudy
10:13 AM 19.4 °F - 10.4 °F 68% 30.08 in 10.0 mi Calm Calm - N/A   Mostly Cloudy
10:34 AM 21.2 °F - 10.4 °F 63% 30.09 in 10.0 mi Calm Calm - N/A   Scattered Clouds
10:54 AM 21.2 °F - 12.2 °F 68% 30.08 in 7.0 mi Calm Calm - N/A   Clear
11:14 AM 23.0 °F - 12.2 °F 63% 30.09 in 7.0 mi Calm Calm - N/A   Scattered Clouds
11:34 AM 24.8 °F - 12.2 °F 59% 30.06 in 7.0 mi Calm Calm - N/A   Scattered Clouds
11:54 AM 24.8 °F - 12.2 °F 59% 30.07 in 7.0 mi Calm Calm - N/A   Scattered Clouds
12:14 PM 24.8 °F - 12.2 °F 59% 30.07 in 7.0 mi Calm Calm - 0.03 in   Scattered Clouds
12:34 PM 24.8 °F - 12.2 °F 59% 30.05 in 7.0 mi Calm Calm - 0.04 in   Mostly Cloudy
12:54 PM 26.6 °F - 12.2 °F 55% 30.05 in 7.0 mi Calm Calm - 0.04 in   Mostly Cloudy
1:14 PM 26.6 °F - 14.0 °F 59% 30.04 in 7.0 mi Calm Calm - N/A   Mostly Cloudy
1:34 PM 24.8 °F - 14.0 °F 64% 30.04 in 7.0 mi Calm Calm - N/A   Mostly Cloudy
1:54 PM 24.8 °F 20.5 °F 14.0 °F 64% 30.04 in 7.0 mi SSW 3.5 mph - N/A   Overcast
2:14 PM 24.8 °F 19.1 °F 14.0 °F 64% 30.04 in 7.0 mi SSW 4.6 mph - N/A   Overcast
2:34 PM 24.8 °F 19.1 °F 14.0 °F 64% 30.03 in 7.0 mi South 4.6 mph - N/A   Mostly Cloudy
2:54 PM 24.8 °F 16.9 °F 14.0 °F 64% 30.02 in 7.0 mi SSE 6.9 mph - N/A   Mostly Cloudy
3:14 PM 24.8 °F 19.1 °F 14.0 °F 64% 30.01 in 7.0 mi South 4.6 mph - N/A   Mostly Cloudy
3:34 PM 24.8 °F 19.1 °F 14.0 °F 64% 30.00 in 7.0 mi SSE 4.6 mph - N/A   Mostly Cloudy
3:53 PM 24.8 °F 19.1 °F 14.0 °F 64% 29.99 in 5.0 mi SSE 4.6 mph - N/A   Haze
4:14 PM 24.8 °F 17.9 °F 14.0 °F 64% 29.98 in 7.0 mi SSE 5.8 mph - N/A   Mostly Cloudy
4:34 PM 24.8 °F 16.9 °F 15.8 °F 69% 29.98 in 7.0 mi South 6.9 mph - N/A   Overcast
4:54 PM 24.8 °F 19.1 °F 15.8 °F 69% 29.96 in 7.0 mi SSE 4.6 mph - N/A   Overcast
5:14 PM 23.0 °F 14.7 °F 14.0 °F 68% 29.96 in 7.0 mi SSE 6.9 mph - N/A   Overcast
5:34 PM 23.0 °F 18.4 °F 15.8 °F 74% 29.96 in 5.0 mi South 3.5 mph - N/A   Haze
5:54 PM 23.0 °F 15.8 °F 15.8 °F 74% 29.95 in 7.0 mi South 5.8 mph - N/A   Overcast
6:14 PM 21.2 °F 14.9 °F 15.8 °F 80% 29.95 in 7.0 mi SSE 4.6 mph - N/A   Overcast
6:33 PM 21.2 °F 11.7 °F 14.0 °F 74% 29.96 in 7.0 mi South 8.1 mph - N/A   Overcast
6:54 PM 21.2 °F 12.6 °F 14.0 °F 74% 29.95 in 7.0 mi South 6.9 mph - N/A   Overcast
7:14 PM 21.2 °F 13.6 °F 14.0 °F 74% 29.94 in 5.0 mi South 5.8 mph - N/A   Haze
7:33 PM 21.2 °F 10.9 °F 14.0 °F 74% 29.94 in 7.0 mi South 9.2 mph - N/A   Overcast
7:54 PM 21.2 °F 13.6 °F 14.0 °F 74% 29.93 in 5.0 mi South 5.8 mph - N/A   Haze
8:14 PM 21.2 °F 11.7 °F 14.0 °F 74% 29.93 in 5.0 mi South 8.1 mph - N/A   Haze
8:34 PM 21.2 °F 12.6 °F 14.0 °F 74% 29.92 in 7.0 mi South 6.9 mph - N/A   Overcast
8:54 PM 21.2 °F 10.9 °F 12.2 °F 68% 29.91 in 7.0 mi SSE 9.2 mph - N/A   Overcast
9:14 PM 19.4 °F 10.4 °F 12.2 °F 74% 29.91 in 5.0 mi South 6.9 mph - N/A   Haze
9:34 PM 19.4 °F 7.9 °F 12.2 °F 74% 29.89 in 7.0 mi South 10.4 mph - N/A   Overcast
9:54 PM 19.4 °F 6.6 °F 12.2 °F 74% 29.86 in 5.0 mi SSE 12.7 mph - N/A   Haze
10:14 PM 19.4 °F 6.0 °F 12.2 °F 74% 29.85 in 5.0 mi South 13.8 mph - N/A   Haze
10:34 PM 19.4 °F 6.6 °F 10.4 °F 68% 29.83 in 7.0 mi SSE 12.7 mph 17.3 mph N/A   Scattered Clouds
10:54 PM 17.6 °F 6.4 °F 10.4 °F 73% 29.83 in 7.0 mi South 9.2 mph - N/A   Clear
11:13 PM 17.6 °F 8.2 °F 10.4 °F 73% 29.83 in 7.0 mi South 6.9 mph - N/A   Clear
11:34 PM 17.6 °F 8.2 °F 8.6 °F 68% 29.82 in 7.0 mi South 6.9 mph - N/A   Clear
11:54 PM 17.6 °F 7.3 °F 8.6 °F 68% 29.82 in 7.0 mi South 8.1 mph - N/A   Mostly Cloudy